CXT,Max TemperatureF,Mean TemperatureF,Min TemperatureF,Max Dew PointF,MeanDew PointF,Min DewpointF,Max Humidity, Mean Humidity, Min Humidity, Max Sea Level PressureIn, Mean Sea Level PressureIn, Min Sea Level PressureIn, Max VisibilityMiles, Mean VisibilityMiles, Min VisibilityMiles, Max Wind SpeedMPH, Mean Wind SpeedMPH, Max Gust SpeedMPH,PrecipitationIn, CloudCover, Events, WindDirDegrees
2012-10-1,80,76,73,72,70,68,94,82,66,30.04,29.98,29.92,6,6,6,13,10,,0.01,7,,117
2012-10-2,81,77,73,72,71,69,94,85,64,30.06,30.01,29.95,6,6,6,13,10,,0.00,7,,125
2012-10-3,79,76,73,72,71,69,94,86,71,30.04,29.97,29.90,6,6,6,15,11,,0.00,8,,134
2012-10-4,79,76,73,70,69,67,88,80,62,29.98,29.94,29.86,6,6,6,16,11,,0.00,7,,125
2012-10-5,81,76,72,70,70,68,88,81,62,30.01,29.95,29.88,6,6,6,15,12,,0.00,6,,129
2012-10-6,80,76,73,72,71,70,94,85,71,30.04,29.97,29.90,6,6,6,15,11,,0.00,7,,131
2012-10-7,79,76,73,72,71,70,94,85,74,30.01,29.95,29.87,6,6,6,16,13,,0.00,8,,127
2012-10-8,80,76,73,72,71,70,94,83,69,29.98,29.92,29.84,6,6,6,16,12,,0.00,7,,120
2012-10-9,80,76,73,72,70,68,94,80,64,29.98,29.91,29.83,6,6,6,17,13,,0.01,7,,130
2012-10-10,81,76,72,70,69,68,88,79,59,29.98,29.92,29.84,6,6,6,16,12,,0.00,6,,133
2012-10-11,81,77,73,77,71,68,100,87,62,29.98,29.92,29.84,6,6,6,14,9,,0.00,6,,145
2012-10-12,81,77,73,79,70,56,100,84,34,29.98,29.91,29.85,6,6,6,14,11,,0.00,7,,137
2012-10-13,82,78,75,74,72,61,94,83,54,29.95,29.90,29.82,6,6,6,15,12,,0.00,7,,128
2012-10-14,81,78,74,76,71,61,100,80,47,29.98,29.93,29.87,6,5,1,15,11,,0.00,8,,127
2012-10-15,80,78,77,75,71,66,94,79,60,30.04,29.98,29.91,6,5,3,16,13,,0.00,8,,127
2012-10-16,82,78,75,75,72,71,100,83,67,30.01,29.96,29.89,6,6,4,20,16,29,0.00,8,,128
2012-10-17,82,78,74,72,69,66,89,76,55,29.98,29.94,29.85,6,6,6,17,14,,0.00,7,,124
2012-10-18,81,78,74,72,70,68,89,77,61,29.98,29.92,29.86,6,6,6,17,12,,0.00,7,,125
2012-10-19,80,78,75,72,70,69,89,78,63,29.98,29.92,29.84,6,6,6,15,12,,0.00,7,,122
2012-10-20,80,77,74,73,71,70,94,84,70,29.98,29.91,29.84,6,6,6,14,11,,0.00,7,,132
2012-10-21,82,78,74,73,70,63,94,80,48,29.98,29.90,29.82,6,6,6,15,10,,0.00,7,,129
2012-10-22,81,77,73,73,71,69,94,84,66,29.98,29.91,29.83,6,6,6,15,11,,0.00,6,,142
2012-10-23,82,78,73,72,70,68,89,77,62,29.95,29.88,29.78,6,6,6,17,13,,0.00,5,,135
2012-10-24,82,78,73,81,73,68,100,89,67,29.95,29.86,29.78,6,6,6,16,13,,0.00,5,,133
2012-10-25,82,78,73,77,66,55,100,73,35,29.92,29.85,29.78,6,6,6,14,11,,0.00,5,,138
2012-10-26,82,78,73,72,67,55,89,72,40,29.89,29.82,29.75,6,6,6,14,10,,0.00,6,,127
2012-10-27,82,78,74,73,70,64,94,78,55,29.89,29.83,29.77,6,6,6,13,10,,0.00,5,,122
2012-10-28,83,79,75,75,73,72,94,85,70,29.89,29.83,29.76,6,6,6,12,9,,0.00,6,,125
2012-10-29,83,79,75,74,73,72,94,84,66,29.89,29.83,29.75,6,6,6,12,8,,0.00,5,,112
2012-10-30,83,79,75,75,74,73,94,85,71,29.86,29.83,29.76,6,6,6,13,8,,0.00,6,,117
2012-10-31,84,80,76,76,75,72,94,87,70,29.92,29.85,29.77,6,6,6,13,10,,0.01,7,,126